CAPE
564 336 148 63 9 0 0 1 0 0 0 6 8 0 0 0 0 0 0 0 0 0 0 0 0 0 0 0 36 176 314 402 481 553 706 690 577 574 589 463 359 324 303
350 165 90 27 2 0 0 0 0 0 0 0 0 0 0 0 0 0 0 0 0 0 0 0 0 0 0 0 0 0 10 87 174 336 537 425 420 422 411 411 365 351 375
128 99 71 53 19 44 40 10 0 0 0 0 0 0 0 0 0 0 0 0 0 0 0 0 0 0 0 0 0 0 0 0 30 141 258 424 315 238 217 364 401 419 496
60 71 82 90 100 90 50 47 46 17 8 8 0 0 0 0 0 0 0 0 0 0 0 0 0 0 0 0 0 0 0 0 4 10 63 208 226 160 254 193 336 420 460
59 32 30 50 95 55 50 59 29 51 39 32 13 0 0 2 0 0 0 0 0 0 0 0 0 0 0 0 0 0 0 0 0 0 0 0 0 0 0 2 186 237 300
8 9 0 13 73 31 25 41 75 89 92 82 62 41 5 5 0 0 0 0 0 0 0 0 0 0 0 0 0 0 0 0 0 0 0 0 0 0 0 0 0 8 193
0 0 0 0 0 0 0 0 0 0 0 67 93 16 0 0 11 0 0 0 0 0 0 0 0 0 0 0 0 0 0 0 0 0 0 0 0 0 0 0 0 0 0
0 0 0 0 0 0 0 0 0 0 0 4 68 51 5 0 0 2 31 0 0 0 0 0 0 0 0 0 0 0 0 0 0 0 0 0 0 0 0 0 0 0 0
0 0 0 0 0 0 0 0 0 0 1 0 7 81 41 13 10 0 4 14 23 5 12 0 0 0 0 0 0 0 0 0 0 0 0 0 0 0 0 0 0 0 0
0 0 0 0 0 0 0 0 0 2 6 0 0 5 3 1 15 2 2 8 108 72 28 0 0 0 0 0 0 0 0 0 0 0 0 0 0 0 0 0 0 0 0
0 0 0 0 0 0 0 7 0 0 0 0 0 0 0 0 0 9 2 0 0 0 0 0 0 0 0 0 0 0 0 0 0 0 0 0 0 0 0 0 0 0 0
0 0 0 0 0 0 0 0 0 1 0 0 0 0 2 8 6 4 2 0 0 0 0 0 0 0 0 0 0 0 0 0 0 0 0 0 0 0 0 0 0 0 0
0 0 0 0 0 0 0 0 1 0 1 0 2 4 2 4 5 5 7 14 13 9 1 0 0 0 0 0 1 0 0 0 0 0 0 0 0 0 0 0 0 0 0
0 0 0 0 0 0 0 0 0 0 3 1 0 2 9 14 14 14 14 13 19 5 3 3 4 33 4 17 5 0 0 0 0 0 0 0 0 0 0 0 0 0 0
0 0 0 0 0 0 0 0 0 2 4 0 0 5 17 11 3 0 0 2 14 12 0 0 4 14 53 20 15 12 2 2 0 0 0 0 0 0 0 0 0 0 0
0 1 6 4 4 0 0 0 6 5 14 1 2 1 4 9 28 20 41 24 12 4 2 0 0 0 0 2 13 25 20 33 7 0 0 0 0 0 0 0 0 0 0
1 7 19 1 9 21 17 14 19 16 23 28 25 28 25 25 7 19 21 36 36 26 17 7 0 0 0 0 1 3 2 1 0 0 0 0 0 0 0 0 0 0 0
14 24 21 24 27 17 19 16 15 20 30 19 5 0 0 3 1 1 3 5 8 4 2 0 1 0 0 0 0 5 8 0 0 5 11 5 4 0 0 0 0 0 0
13 8 24 20 28 31 18 5 5 13 0 0 0 0 0 0 0 0 0 3 4 8 1 0 0 0 0 0 0 0 0 0 0 5 0 0 4 3 0 0 0 0 0
22 26 24 14 8 0 1 1 0 0 0 0 0 0 0 0 0 5 0 0 0 0 0 0 0 0 0 0 1 5 0 0 1 7 5 3 0 10 20 10 0 1 0
18 18 16 3 5 8 0 0 0 0 0 0 0 0 0 3 45 7 0 0 0 0 0 0 0 0 0 0 0 0 0 0 0 0 0 0 0 0 0 1 0 3 0
26 11 0 6 15 12 0 0 0 0 0 0 0 0 0 10 1 26 36 9 0 0 0 0 0 0 0 0 0 0 0 0 0 0 0 0 0 0 0 0 0 0 0
1 0 3 11 5 0 0 0 0 0 0 0 0 0 0 7 1 0 0 0 0 7 0 0 0 0 0 0 0 0 0 0 0 0 0 0 0 0 0 0 3 3 0
0 1 5 1 0 0 0 0 0 0 0 0 0 0 0 0 0 4 2 0 3 2 12 20 5 0 0 0 6 27 31 3 2 0 0 4 0 0 0 0 14 38 27
1 8 1 0 0 0 0 11 1 0 0 0 0 0 5 1 11 34 9 0 0 0 11 35 38 36 18 16 10 3 0 0 0 0 0 13 0 0 0 0 0 4 16
6 0 0 0 0 0 12 29 28 0 0 0 0 0 13 14 29 8 6 5 0 0 0 0 0 0 0 0 0 0 0 5 0 0 0 4 0 12 9 0 0 0 0
CIN
-28 -34 -46 -48 -21 -0 -0 -5 -0 -0 -0 -7 -15 -0 -0 -0 -0 -0 -0 -0 -0 -0 -0 -0 -0 -0 -0 -0 -37 -40 -17 -16 -22 -16 -10 -11 -22 -18 -27 -29 -40 -63 -38
-50 -59 -61 -84 -9 -0 -0 -0 -0 -0 -0 -0 -0 -0 -0 -0 -0 -0 -0 -0 -0 -0 -0 -0 -0 -0 -0 -0 -0 -0 -26 -45 -22 -10 -6 -22 -23 -25 -43 -35 -44 -84 -49
-52 -49 -63 -61 -54 -42 -43 -22 -0 -0 -0 -0 -0 -0 -0 -0 -0 -0 -0 -0 -0 -0 -0 -0 -0 -0 -0 -0 -0 -0 -0 -0 -56 -39 -26 -6 -18 -33 -49 -28 -42 -21 -24
-73 -67 -67 -55 -38 -43 -53 -35 -27 -35 -46 -57 -0 -0 -0 -0 -0 -0 -0 -0 -0 -0 -0 -0 -0 -0 -0 -0 -0 -0 -0 -0 -5 -31 -16 -8 -7 -20 -11 -57 -44 -20 -13
-96 -121 -126 -86 -44 -45 -40 -21 -37 -25 -28 -38 -39 -0 -0 -38 -0 -0 -0 -0 -0 -0 -0 -0 -0 -0 -0 -0 -0 -0 -0 -0 -0 -0 -0 -0 -0 -0 -0 -5 -22 -12 -9
-128 -129 -26 -89 -59 -59 -58 -43 -18 -21 -15 -14 -8 -12 -36 -30 -0 -0 -0 -0 -0 -0 -0 -0 -0 -0 -0 -0 -0 -0 -0 -0 -0 -0 -0 -0 -0 -0 -0 -0 -0 -1 -26
-0 -0 -0 -0 -0 -0 -0 -0 -0 -0 -0 -9 -8 -13 -0 -0 -22 -0 -0 -0 -0 -0 -0 -0 -0 -0 -0 -0 -0 -0 -0 -0 -0 -0 -0 -0 -0 -0 -0 -0 -0 -0 -0
-0 -0 -0 -0 -0 -0 -0 -0 -0 -0 -0 -10 -4 -7 -2 -0 -0 -4 -28 -1 -0 -0 -0 -0 -0 -0 -0 -0 -0 -0 -0 -0 -0 -0 -0 -0 -0 -0 -0 -0 -0 -0 -0
-0 -0 -0 -0 -0 -0 -0 -0 -0 -0 -4 -0 -16 -5 -6 -3 -8 -0 -11 -39 -49 -58 -50 -4 -0 -0 -0 -0 -0 -0 -0 -0 -0 -0 -0 -0 -0 -0 -0 -0 -0 -0 -0
-0 -0 -0 -0 -0 -0 -0 -0 -0 -19 -23 -0 -0 -23 -9 -8 -0 -2 -3 -11 -99 -80 -76 -0 -0 -0 -0 -0 -0 -0 -0 -0 -0 -0 -0 -0 -0 -0 -0 -0 -0 -0 -0
-0 -0 -0 -0 -0 -0 -0 -11 -0 -0 -0 -0 -0 -0 -0 -0 -0 -23 -8 -0 -3 -0 -0 -0 -0 -0 -0 -0 -0 -0 -0 -0 -0 -0 -0 -0 -0 -0 -0 -0 -0 -0 -0
-0 -0 -0 -0 -0 -0 -0 -0 -0 -21 -0 -0 -0 -2 -0 -0 -0 -0 -0 -0 -0 -0 -0 -0 -0 -0 -0 -0 -4 -0 -0 -0 -0 -0 -0 -0 -0 -0 -0 -0 -0 -0 -0
-0 -0 -0 -0 -0 -0 -0 -25 -76 -34 -54 -0 -0 -0 -0 -0 -0 -0 -0 -0 -0 -0 -1 -0 -0 -0 -0 -0 -9 -0 -0 -0 -0 -0 -0 -0 -0 -0 -0 -0 -0 -0 -0
-0 -0 -0 -0 -0 -0 -0 -0 -0 -0 -25 -15 -0 -3 -1 -0 -0 -0 -0 -0 -0 -0 -4 -3 -7 -0 -0 -0 -5 -0 -0 -0 -0 -0 -0 -0 -0 -0 -0 -0 -0 -0 -0
-0 -0 -0 -0 -0 -0 -0 -0 -6 -30 -1 -0 -0 -0 -1 -3 -5 -0 -0 -0 -0 -0 -0 -0 -0 -1 -7 -1 -4 -8 -0 -28 -0 -0 -0 -0 -0 -0 -0 -0 -0 -0 -0
-0 -11 -16 -5 -2 -1 -0 -2 -9 -3 -6 -3 -6 -6 -1 -8 -7 -18 -6 -0 -1 -3 -1 -0 -0 -0 -0 -0 -2 -1 -7 -29 -105 -0 -0 -0 -0 -0 -0 -0 -0 -0 -0
-6 -5 -5 -8 -9 -6 -7 -4 -6 -9 -9 -11 -9 -8 -4 -10 -9 -11 -14 -17 -15 -13 -0 -15 -0 -0 -0 -0 -0 -0 -0 -1 -0 -0 -0 -0 -0 -0 -0 -0 -0 -0 -0
-4 -12 -13 -7 -3 -4 -5 -6 -4 -5 -5 -4 -3 -2 -0 -1 -13 -21 -18 -13 -11 -14 -20 -0 -21 -7 -0 -0 -3 -7 -2 -0 -0 -31 -85 -115 -103 -37 -0 -0 -0 -0 -0
-22 -7 -15 -11 -7 -6 -3 -4 -7 -5 -0 -0 -0 -0 -0 -0 -0 -0 -16 -12 -13 -5 -14 -0 -0 -0 -0 -0 -0 -0 -0 -0 -0 -16 -0 -0 -125 -99 -0 -0 -0 -0 -0
-6 -6 -11 -6 -13 -0 -4 -10 -2 -0 -0 -0 -0 -0 -0 -0 -7 -9 -0 -0 -0 -0 -0 -0 -0 -0 -0 -3 -7 -8 -0 -0 -14 -7 -17 -9 -44 -83 -80 -86 -41 -32 -0
-7 -13 -7 -9 -8 -5 -0 -0 -0 -0 -0 -0 -0 -0 -0 -2 -3 -24 -5 -0 -0 -0 -0 -0 -0 -0 -0 -0 -5 -0 -0 -0 -0 -0 -0 -0 -0 -0 -0 -16 -15 -7 -0
-4 -7 -2 -11 -8 -2 -0 -0 -0 -0 -0 -0 -0 -0 -0 -2 -10 -13 -8 -18 -0 -0 -0 -0 -0 -0 -0 -0 -0 -0 -0 -0 -0 -0 -0 -0 -0 -0 -0 -0 -0 -0 -0
-8 -0 -8 -7 -14 -0 -0 -0 -0 -0 -0 -0 -0 -0 -0 -0 -8 -0 -0 -0 -6 -6 -1 -0 -0 -0 -0 -0 -0 -0 -0 -0 -0 -0 -10 -0 -1 -0 -0 -0 -15 -23 -0
-0 -10 -9 -5 -0 -0 -0 -0 -0 -0 -0 -0 -1 -0 -0 -0 -0 -2 -3 -1 -3 -7 -2 -2 -0 -0 -0 -0 -3 -0 -0 -5 -0 -0 -0 -2 -0 -0 -0 -0 -21 -7 -10
-5 -8 -14 -0 -0 -0 -0 -2 -0 -0 -0 -0 -0 -0 -3 -7 -1 -0 -1 -0 -0 -0 -0 -0 -0 -3 -4 -4 -3 -1 -0 -0 -0 -0 -0 -1 -0 -0 -0 -0 -0 -14 -9
-7 -58 -0 -0 -0 -0 -3 -2 -1 -8 -0 -0 -0 -0 -0 -1 -2 -0 -0 -0 -0 -0 -0 -0 -0 -0 -0 -0 -0 -1 -0 -0 -1 -1 -0 -3 -0 -4 -1 -0 -0 -0 -0
Wind_Speed
3 3 2 2 3 3 3 2 3 4 4 5 5 6 5 5 6 4 3 8 6 5 6 9 9 9 8 6 5 5 5 5 5 6 5 8 10 10 11 13 14 14 13
2 2 2 3 4 3 3 2 3 4 5 5 6 6 6 5 5 6 3 5 10 10 8 9 9 7 7 6 4 5 7 7 6 6 6 5 7 9 9 10 12 13 13
3 3 3 3 4 3 5 4 4 4 4 5 7 6 6 7 6 7 6 3 6 10 10 10 10 10 9 7 5 3 3 3 2 2 4 4 4 5 7 7 10 13 15
0 2 4 4 4 4 4 4 4 5 5 5 4 5 5 6 8 9 7 5 5 6 10 14 13 12 12 11 9 8 6 5 7 5 6 4 4 6 2 8 7 13 15
4 4 4 4 6 4 5 5 5 5 5 5 6 6 5 6 6 7 8 8 8 6 6 14 18 16 14 13 12 11 10 8 8 7 6 5 6 6 4 4 2 5 10
5 4 3 5 5 5 5 5 5 5 5 5 9 10 8 8 7 5 6 7 8 9 8 8 8 7 14 16 15 14 13 11 10 8 8 6 4 2 2 3 2 2 4
2 3 4 5 4 5 5 6 5 7 7 5 6 8 9 10 8 9 9 6 8 11 11 9 8 7 8 17 18 17 16 14 13 10 8 6 5 5 1 3 4 5 4
5 5 5 5 5 4 7 6 6 6 6 5 7 8 10 10 8 11 9 10 12 10 10 13 12 13 10 9 10 19 18 16 14 12 11 8 5 4 3 3 4 6 7
6 5 5 5 5 4 4 6 8 9 9 7 7 6 10 11 8 6 10 5 9 7 4 7 13 13 9 10 12 14 13 13 14 13 11 10 8 7 7 6 6 7 8
6 7 7 6 6 5 6 5 7 7 6 9 7 8 10 7 5 10 4 6 5 6 5 3 5 9 10 7 11 13 14 11 11 11 10 10 10 9 9 8 7 7 9
7 8 8 7 6 5 6 6 7 7 5 6 7 9 9 9 9 6 9 5 6 7 9 5 6 3 6 10 6 8 16 13 10 9 8 8 9 9 9 8 9 8 9
5 7 9 7 6 8 8 6 7 8 6 7 6 6 5 4 4 3 3 8 8 6 6 4 6 5 3 1 9 8 11 11 10 8 7 7 9 9 9 9 9 9 10
5 8 8 9 7 6 7 7 6 6 5 4 5 3 2 3 2 1 2 3 4 4 4 2 2 6 6 5 6 9 12 9 10 9 6 7 10 11 11 11 10 10 11
4 9 6 6 6 5 4 4 3 3 4 3 4 5 4 3 3 2 1 2 3 3 6 5 2 4 4 6 11 6 6 11 10 10 11 8 9 11 12 12 11 11 12
5 6 4 4 4 4 3 3 3 4 3 2 5 7 5 5 4 4 5 5 3 3 5 4 3 4 5 6 8 6 5 14 15 14 11 11 11 12 13 13 14 13 13
4 4 3 3 5 5 6 5 4 5 5 4 4 6 6 5 6 5 6 5 6 5 6 2 5 6 8 6 7 10 8 5 12 11 10 11 12 14 14 14 14 15 16
3 4 4 3 8 9 6 6 6 7 6 7 6 6 6 7 7 6 4 4 7 8 10 8 8 9 9 10 8 5 5 5 5 12 15 16 17 17 16 16 15 15 15
6 6 7 6 7 8 7 6 6 6 7 5 7 7 8 8 7 6 4 6 5 6 5 10 4 4 5 5 5 5 6 7 5 7 14 17 19 19 18 15 14 14 14
6 5 6 7 9 10 7 6 6 6 7 8 10 11 11 10 8 5 7 7 6 7 6 7 7 4 4 4 7 5 5 5 5 9 9 11 14 17 18 18 19 18 17
7 7 6 7 7 8 9 7 8 7 6 7 9 11 12 12 10 7 4 5 8 8 8 8 8 7 5 6 6 5 3 3 4 7 8 5 2 12 17 17 16 16 17
6 6 8 6 6 7 6 6 7 7 7 8 9 12 12 14 20 10 7 6 6 5 5 7 8 8 7 6 4 3 3 4 4 3 4 4 4 3 3 9 12 16 18
6 6 6 7 7 7 8 8 7 6 9 10 11 12 12 15 13 12 9 10 7 5 6 7 8 9 11 9 6 4 4 4 6 4 3 4 3 4 4 4 9 8 8
5 5 6 6 6 8 8 9 11 7 8 9 11 11 12 10 13 9 9 8 10 13 11 10 11 12 10 10 9 9 7 7 8 6 4 7 2 5 5 7 12 13 12
5 5 5 6 7 7 10 8 9 6 7 9 10 12 12 12 10 12 11 9 9 9 10 9 11 13 12 11 10 9 8 7 6 6 4 9 4 7 4 5 14 16 16
5 4 4 6 6 6 12 14 9 6 7 8 10 10 11 11 16 21 12 10 11 9 10 12 16 15 17 19 17 9 9 8 10 9 5 7 6 5 4 7 7 17 19
5 5 5 5 8 7 10 13 13 5 6 8 9 11 15 15 11 11 7 7 8 8 8 8 8 9 12 12 17 11 9 10 9 9 6 7 7 2 4 6 9 5 3
Wind_Direction
39 7 3 304 311 289 269 317 356 327 304 268 246 230 241 274 272 265 162 181 180 177 230 252 249 242 237 229 211 205 216 229 240 244 234 231 231 228 212 209 203 202 206
55 290 344 302 287 296 350 346 280 262 260 255 268 255 231 230 271 296 256 182 194 179 202 239 236 221 218 221 214 216 221 216 220 243 240 233 228 229 217 216 215 208 206
4 343 307 311 288 317 328 300 279 267 267 257 246 243 226 220 216 239 265 190 192 199 194 205 217 221 220 207 203 203 160 149 163 173 234 254 264 243 244 237 217 218 207
281 315 313 319 313 314 280 266 274 266 258 258 257 259 249 227 212 213 221 212 199 201 203 194 206 217 216 206 206 207 200 178 171 120 76 124 104 68 205 236 257 226 211
28 22 345 322 322 307 288 278 279 265 270 277 277 260 251 241 231 229 212 211 213 225 185 206 201 202 206 214 212 208 197 195 177 150 134 108 96 104 90 52 271 261 258
50 9 312 295 290 293 293 296 299 300 284 277 284 284 277 273 268 248 229 218 206 212 218 178 194 203 207 208 213 212 205 193 184 172 154 151 137 76 66 55 352 49 223
32 313 295 296 330 308 305 308 298 302 298 295 292 282 280 272 273 250 239 218 217 212 205 195 182 197 200 210 210 214 210 207 204 200 201 206 188 151 162 326 320 317 311
23 328 319 302 311 317 314 310 309 305 289 281 278 284 290 287 269 264 257 240 232 225 213 206 194 194 191 192 202 209 208 210 209 209 208 194 200 212 222 234 275 296 307
344 320 335 324 319 312 318 328 312 301 303 306 289 278 293 282 300 295 297 298 275 256 248 255 208 210 196 182 192 200 195 198 207 209 198 203 216 228 242 252 256 274 276
357 355 349 346 352 336 327 307 317 319 322 318 328 346 348 348 321 307 287 303 322 281 256 337 40 301 226 174 165 168 185 193 193 208 215 214 217 226 236 250 261 269 271
357 4 349 339 343 337 307 333 28 27 10 359 354 356 342 333 319 326 307 324 326 20 8 16 346 188 38 319 151 164 166 177 187 203 219 246 252 240 240 242 262 272 280
349 346 346 329 336 18 20 11 14 25 12 12 355 345 347 326 326 328 314 313 305 308 339 359 350 318 324 17 311 121 178 178 175 196 215 241 263 262 265 265 261 266 280
345 336 347 34 33 31 25 20 23 28 12 353 324 311 300 286 273 269 269 299 308 321 304 291 17 314 9 325 269 118 159 176 177 181 221 254 261 270 273 273 272 276 281
326 46 36 29 26 31 33 27 23 6 331 291 269 244 260 262 262 264 272 301 301 283 285 281 349 286 323 302 332 136 173 184 193 194 195 212 244 263 271 273 277 282 284
9 51 43 13 353 346 334 302 289 312 295 335 342 336 294 255 232 233 224 208 219 296 298 313 354 331 249 320 288 305 257 191 198 199 207 213 224 245 259 266 275 281 284
13 322 354 327 320 294 277 265 280 280 250 237 235 245 259 259 251 245 246 245 240 238 268 277 287 283 296 287 240 244 266 225 191 204 210 217 218 229 242 249 259 269 277
328 299 308 320 293 297 294 277 267 269 266 263 267 269 273 271 268 263 264 244 234 226 250 269 277 270 262 252 252 270 289 277 238 197 199 212 218 223 227 236 244 256 266
322 345 348 329 308 301 288 286 283 295 285 312 310 314 311 316 312 303 304 298 291 289 283 290 278 292 285 285 262 255 262 271 265 250 224 222 225 226 228 229 232 238 251
332 310 297 287 280 278 298 311 301 321 17 349 337 326 313 308 303 302 304 299 298 293 294 293 290 287 285 303 297 285 270 258 268 270 266 217 217 222 226 226 228 230 235
273 276 294 321 326 320 319 346 358 359 354 336 323 313 307 300 287 281 307 295 298 311 304 300 298 297 284 266 251 258 304 293 274 270 261 292 305 245 233 227 226 228 232
331 323 308 322 322 313 30 22 4 346 332 320 313 303 297 296 302 263 270 271 260 265 283 296 301 311 314 316 322 314 313 302 309 315 308 304 305 292 284 242 243 241 243
321 322 331 328 331 344 79 43 15 337 326 321 308 299 294 304 300 331 286 301 313 290 284 282 280 277 281 282 292 282 285 309 294 271 255 257 258 275 269 249 257 234 209
320 332 331 329 2 19 51 27 5 333 318 310 307 311 312 309 323 326 321 296 249 239 235 251 263 261 268 268 273 276 269 258 259 256 266 272 247 259 259 266 261 257 248
330 327 320 33 15 346 356 2 341 318 320 310 318 312 308 309 308 309 302 298 281 277 271 255 248 258 258 266 276 280 272 280 288 284 249 264 237 250 237 239 245 249 249
309 302 23 14 351 327 316 315 320 309 298 299 299 298 298 304 303 312 306 286 279 274 277 288 307 288 276 265 259 268 265 263 269 259 236 257 247 257 244 250 241 245 242
314 57 29 351 319 313 324 320 313 315 306 308 310 307 302 299 323 328 318 310 299 289 292 297 298 294 286 276 272 250 250 254 254 270 238 241 254 180 270 237 235 234 233